[Iaude] MPEC P35: 2020 MQ61 [a=2.53,e=0.65,i=1.9,H=30.1]
    mpec at cfa.harvard.edu 
    mpec at cfa.harvard.edu
       
    Fri Aug  2 19:28:06 EDT 2024
    
    
  
M.P.E.C. 2024-P35                                Issued 2024 August 2, 23:24 UT
     The Minor Planet Electronic Circulars contain information on unusual
         minor planets, routine data on comets and natural satellites,
         and occasional editorial announcements.  They are published
    on behalf of Division F of the International Astronomical Union by the
          Minor Planet Center, Smithsonian Astrophysical Observatory,
                          Cambridge, MA 02138, U.S.A.
			  
             Prepared using the Tamkin Foundation Computer Network
                              MPC at CFA.HARVARD.EDU
            URL https://www.minorplanetcenter.net/    ISSN 1523-6714
                                   2020 MQ61                                    
Observations:
     K20M61Q* C2020 06 17.48564016 01 56.671-15 00 36.00         18.6 GVEP035P07
     K20M61Q  C2020 06 17.48936316 03 13.416-15 08 31.13         18.9 GVEP035P07
     K20M61Q  C2020 06 17.53795716 18 56.280-16 42 50.29         19.2 GVEP035P07
     K20M61Q  C2020 06 17.54031316 19 39.305-16 47 00.31         19.2 GVEP035P07
     K20M61Q  C2020 06 17.59426516 35 01.394-18 13 05.59         18.7 GVEP035P07
     K20M61Q  C2020 06 17.64143816 46 56.556-19 15 15.34         19.3 GVEP035P07
Observer details:
P07 Space Surveillance Telescope, HEH Station.  Observers M. Blythe, R.
    Brungard, P. Festler, T. McVey, J. Paige, G. Spitz, L. Banks.  Measurers
    M. Cornell, M. Kotson, A. Lue, R. Rios, J. Ruprecht, J. Vaillancourt, J.
    Varey, H. Viggh, D. Woods, R. Monardez.  3.5-m f/1. Reflector + CCD.
Orbital elements:
2020 MQ61                                                Earth MOID = 0.0002 AU
Epoch 2024 Oct. 17.0 TT = JDT 2460600.5                 Veres                   
M  35.50630              (2000.0)            P               Q                  
n   0.24449818     Peri.  130.54221     -0.79257534     +0.60884319             
a   2.5329054      Node    86.99037     -0.56915708     -0.71883179             
e   0.6539317      Incl.    1.93272     -0.21882539     -0.33554557             
P   4.03           H   30.14          G   0.15           U   9                  
Residuals in seconds of arc
200617 P07  0.0   0.0     200617 P07  0.1-  0.0     200617 P07  0.1-  0.1+
200617 P07  0.0   0.0     200617 P07  0.1+  0.1-    200617 P07  0.0   0.0
Ephemeris:
2020 MQ61                a,e,i = 2.53, 0.65, 2                   q = 0.8766
Date    TT    R. A. (2000) Decl.     Delta      r    Elong.  Phase     V
2024 07 03    12 53 39.9 -06 37 47   0.1832  1.0446    93.7    76.2    29.2
...
2024 07 18    15 46 56.5 -23 03 19   0.2391  1.1671   124.0    46.2    29.1
...
2024 07 26    16 48 28.7 -25 47 39   0.3072  1.2380   130.7    38.5    29.6
...
2024 08 01    17 21 46.6 -26 32 07   0.3685  1.2926   132.4    35.4    30.0
2024 08 02    17 26 31.9 -26 35 53   0.3794  1.3018   132.6    35.1    30.1
2024 08 03    17 31 05.9 -26 38 54   0.3905  1.3110   132.6    34.7    30.1
...
2024 08 09    17 55 08.8 -26 44 51   0.4604  1.3666   132.3    33.3    30.5
...
2024 08 17    18 20 42.6 -26 32 50   0.5620  1.4412   130.3    32.4    31.1
...
2024 09 01    18 57 27.6 -25 43 06   0.7756  1.5810   124.2    31.9    31.9
M. P. C. Staff               (C) Copyright 2024 MPC           M.P.E.C. 2024-P35
    
    
More information about the Iaude
mailing list